Meteo Giornale » Osservazioni meteo Italia » Palermo-Punta Raisi

ore: 08:20 - Osservazioni Meteo Palermo-Punta Raisi
Lat. 38° 11' N Lon. 13° 6' E Alt. 21 metri s.l.m.

sereno Europe/Rome

13 °C

Sereno

Temp. 24 Ore

10 °C

17 °C

Nord

5.5 Km/h

Dew point 8 °C

Umidità 71 %

Visibilità  10 Km

Il sole sorge alle ore 06:35

Il sole tramonta alle ore 19:41

Data e Ora Cielo e Fenomeni T °C DP °C Um. % Pres. hPa Vis. km Vento km/h
Oggi h: 08:20 sereno Sereno 13 8 71 1020 10 N 5.5
Oggi h: 07:50 sereno Sereno 12 7 71 1020 10 N 5.5
Oggi h: 07:20 sereno Sereno 11 6 71 1020 10 SE 9.3
Oggi h: 06:50 sereno Sereno 10 6 76 1020 10 S/SE 9.3
Oggi h: 05:50 sereno Sereno 11 6 71 1020 10 N 5.5
Oggi h: 04:50 sereno Sereno 12 6 66 1019 10 N 1.8
Oggi h: 04:20 sereno Sereno 12 6 66 1020 10 N 5.5
Oggi h: 03:50 sereno Sereno 12 6 66 1020 10 N 5.5
Oggi h: 03:20 sereno Sereno 11 7 76 1020 10 S 7.4
Oggi h: 02:50 sereno Sereno 12 7 71 1020 10 SE 7.4
Oggi h: 02:20 sereno Sereno 12 7 71 1021 10 N 5.5
Oggi h: 01:50 sereno Sereno 13 8 71 1021 10 N 5.5
Oggi h: 01:20 sereno Sereno 12 8 76 1021 10 E/NE 11.1
Oggi h: 00:50 sereno Sereno 12 7 71 1021 10 E/SE 9.3
Oggi h: 00:20 sereno Sereno 12 7 71 1021 10 SE 9.3
Ieri h: 23:50 sereno Sereno 12 7 71 1021 10 N 5.5
Ieri h: 23:20 sereno Sereno 12 7 71 1021 10 N 5.5
Ieri h: 22:50 sereno Sereno 13 8 71 1022 10 N 3.7
Ieri h: 22:20 sereno Sereno 13 7 66 1021 10 S 7.4
Ieri h: 21:50 sereno Sereno 14 7 62 1022 10 N 3.7
Ieri h: 21:20 sereno Sereno 15 8 62 1022 10 O/SO 11.1
Ieri h: 20:50 sereno Sereno 15 9 67 1021 10 N 5.5
Ieri h: 20:20 sereno Sereno 14 9 71 1021 10 E 11.1
Ieri h: 19:50 sereno Sereno 15 8 62 1021 10 E 13
Ieri h: 19:20 sereno Sereno 15 9 67 1021 10 E/NE 18.5
Ieri h: 18:50 sereno Sereno 15 9 67 1021 10 NE 22.2
Ieri h: 17:50 sereno Sereno 16 9 63 1022 10 NE 20.3
Ieri h: 17:20 sereno Sereno 16 9 63 1022 10 E/NE 18.5
Ieri h: 16:50 sereno Sereno 16 9 63 1022 10 E/NE 20.3
Ieri h: 16:20 sereno Sereno 17 8 55 1022 10 E/NE 20.3
Ieri h: 15:50 sereno Sereno 17 8 55 1022 10 NE 20.3
Ieri h: 15:20 sereno Sereno 17 7 51 1022 10 NE 20.3
Ieri h: 14:50 sereno Sereno 16 6 51 1023 10 E/NE 20.3
Ieri h: 14:20 sereno Sereno 16 5 47 1023 10 NE 24
Ieri h: 13:50 sereno Sereno 16 6 51 1023 10 NE 20.3
Ieri h: 13:20 sereno Sereno 15 6 54 1023 10 N/NE 18.5
Ieri h: 12:50 sereno Sereno 15 6 54 1023 10 N/NE 16.7
Ieri h: 12:20 sereno Sereno 15 5 51 1024 10 N/NE 16.7
Ieri h: 11:50 sereno Sereno 15 4 47 1024 10 N/NE 14.8
Ieri h: 11:20 sereno Sereno 15 6 54 1025 10 N/NE 11.1
Ieri h: 10:50 sereno Sereno 14 5 54 1024 10 N/NE 7.4
Ieri h: 10:20 sereno Sereno 15 4 47 1024 10 N 3.7
Ieri h: 09:50 sereno Sereno 14 4 50 1024 10 N 5.5
Ieri h: 09:20 sereno Sereno 13 5 58 1024 10 SO 9.3
Ieri h: 08:50 sereno Sereno 12 5 62 1024 10 N 5.5